This is the latest recevied weather packets stored in our database for station/object IZ5MJO-13. If no packets are shown the sender has not sent any weather packets the latest 10 day(s).
| Time | Temp. | Humidity | Pressure | Rain* | Wind** | Luminosity | Snow |
|---|---|---|---|---|---|---|---|
| 1788608132 | 33.89° C | 36% | 1009.3 hPa | - | - | - | - |
| 1788607231 | 32.78° C | 38% | 1009.2 hPa | - | - | - | - |
| 1788606772 | 23.33° C | 45% | 1008.7 hPa | - | - | - | - |
| 1788606394 | 22.78° C | 46% | 1008.8 hPa | - | - | - | - |
| 1788606331 | 32.22° C | 36% | 1009.3 hPa | - | - | - | - |
| 1788605431 | 30.56° C | 38% | 1009.4 hPa | - | - | - | - |
| 1788604531 | 29.44° C | 38% | 1009.5 hPa | - | - | - | - |
| 1788603631 | 28.89° C | 39% | 1009.5 hPa | - | - | - | - |
| 1788602730 | 28.89° C | 39% | 1009.6 hPa | - | - | - | - |
| 1788601830 | 27.78° C | 40% | 1009.6 hPa | - | - | - | - |
| 1788600930 | 27.22° C | 40% | 1009.7 hPa | - | - | - | - |
| 1788600029 | 27.22° C | 40% | 1009.6 hPa | - | - | - | - |
| 1788599129 | 26.67° C | 39% | 1009.6 hPa | - | - | - | - |
| 1788598229 | 26.11° C | 43% | 1009.3 hPa | - | - | - | - |
| 1788597328 | 25.56° C | 46% | 1009.4 hPa | - | - | - | - |
| 1788596428 | 25.56° C | 45% | 1009.5 hPa | - | - | - | - |
| 1788595528 | 25° C | 44% | 1009.5 hPa | - | - | - | - |
| 1788594628 | 25° C | 42% | 1009.3 hPa | - | - | - | - |
| 1788593728 | 25° C | 42% | 1009 hPa | - | - | - | - |
| 1788592827 | 25° C | 43% | 1008.8 hPa | - | - | - | - |
| 1788591927 | 24.44° C | 44% | 1008.6 hPa | - | - | - | - |
| 1788591055 | 23.89° C | 44% | 1008.7 hPa | - | - | - | - |
| 1788590126 | 23.89° C | 44% | 1008.6 hPa | - | - | - | - |
| 1788589246 | 23.33° C | 45% | 1008.7 hPa | - | - | - | - |
| 1788588325 | 22.78° C | 46% | 1008.8 hPa | - | - | - | - |
* Rain since midnight (hover to see other rain measurements)
** Current wind speed in m/s (hover to see current wind gust speed)